Time,TemperatureF,DewpointF,PressureIn,WindDirection,WindDirectionDegrees,WindSpeedMPH,WindSpeedGustMPH,Humidity,HourlyPrecipIn,Conditions,Clouds,dailyrainin,SoftwareType,DateUTC
2013-04-14 00:00:00,63.6,56.6,29.85,SE,146,3.0,10.0,78,0.00,,SKC,0.00,VWS V14.01,2013-04-14 05:00:00,
2013-04-14 00:05:00,63.4,56.4,29.85,SE,146,1.0,3.0,78,0.00,,SKC,0.00,VWS V14.01,2013-04-14 05:05:00,
2013-04-14 00:10:00,63.2,56.6,29.85,SE,146,0.0,5.0,79,0.00,,SKC,0.00,VWS V14.01,2013-04-14 05:10:00,
2013-04-14 00:15:00,63.1,56.8,29.85,SE,145,4.0,6.0,80,0.00,,SKC,0.00,VWS V14.01,2013-04-14 05:15:00,
2013-04-14 00:20:00,63.0,56.7,29.85,SE,146,6.0,7.0,80,0.00,,SKC,0.00,VWS V14.01,2013-04-14 05:20:00,
2013-04-14 00:25:00,62.8,56.9,29.85,SE,145,2.0,7.0,81,0.00,,SKC,0.00,VWS V14.01,2013-04-14 05:25:00,
2013-04-14 00:30:00,62.7,57.1,29.84,SE,146,0.0,7.0,82,0.00,,SKC,0.00,VWS V14.01,2013-04-14 05:30:00,
2013-04-14 00:35:00,62.5,56.9,29.84,SE,146,1.0,5.0,82,0.00,,SKC,0.00,VWS V14.01,2013-04-14 05:35:00,
2013-04-14 00:40:00,62.4,56.8,29.84,SE,146,0.0,5.0,82,0.00,,SKC,0.00,VWS V14.01,2013-04-14 05:40:00,
2013-04-14 00:45:00,62.3,57.1,29.84,SE,146,3.0,5.0,83,0.00,,SKC,0.00,VWS V14.01,2013-04-14 05:45:00,
2013-04-14 00:50:00,62.1,56.9,29.84,SE,146,5.0,5.0,83,0.00,,SKC,0.00,VWS V14.01,2013-04-14 05:50:00,
2013-04-14 00:55:00,62.0,57.1,29.84,SE,146,1.0,5.0,84,0.00,,SKC,0.00,VWS V14.01,2013-04-14 05:55:00,
2013-04-14 01:00:00,61.9,57.0,29.84,SE,146,0.0,5.0,84,0.00,,SKC,0.00,VWS V14.01,2013-04-14 06:00:00,
2013-04-14 01:05:00,61.8,56.9,29.84,SE,146,0.0,0.0,84,0.00,,SKC,0.00,VWS V14.01,2013-04-14 06:05:00,
2013-04-14 01:10:00,61.6,57.0,29.84,SE,146,0.0,1.0,85,0.00,,SKC,0.00,VWS V14.01,2013-04-14 06:10:00,
2013-04-14 01:15:00,61.5,57.0,29.84,SE,146,0.0,1.0,85,0.00,,SKC,0.00,VWS V14.01,2013-04-14 06:15:00,
2013-04-14 01:20:00,61.4,56.9,29.83,SE,146,0.0,1.0,85,0.00,,SKC,0.00,VWS V14.01,2013-04-14 06:20:00,
2013-04-14 01:25:00,61.2,56.7,29.83,SE,146,0.0,1.0,85,0.00,,SKC,0.00,VWS V14.01,2013-04-14 06:25:00,
2013-04-14 01:30:00,61.0,56.5,29.83,SE,146,0.0,1.0,85,0.00,,SKC,0.00,VWS V14.01,2013-04-14 06:30:00,
2013-04-14 01:35:00,60.9,56.7,29.83,SE,146,3.0,3.0,86,0.00,,SKC,0.00,VWS V14.01,2013-04-14 06:35:00,
2013-04-14 01:40:00,60.8,56.6,29.82,SE,146,0.0,4.0,86,0.00,,SKC,0.00,VWS V14.01,2013-04-14 06:40:00,
2013-04-14 01:45:00,60.7,56.5,29.82,SE,146,0.0,4.0,86,0.00,,SKC,0.00,VWS V14.01,2013-04-14 06:45:00,
2013-04-14 01:50:00,60.5,56.6,29.82,SE,146,0.0,4.0,87,0.00,,SKC,0.00,VWS V14.01,2013-04-14 06:50:00,
2013-04-14 01:55:00,60.4,56.5,29.82,SE,146,0.0,4.0,87,0.00,,SKC,0.00,VWS V14.01,2013-04-14 06:55:00,
2013-04-14 02:00:00,60.3,56.4,29.82,SE,146,0.0,4.0,87,0.00,,SKC,0.00,VWS V14.01,2013-04-14 07:00:00,
2013-04-14 02:05:00,60.2,56.3,29.81,SE,146,1.0,3.0,87,0.00,,SKC,0.00,VWS V14.01,2013-04-14 07:05:00,
2013-04-14 02:10:00,60.1,56.2,29.81,SE,146,0.0,3.0,87,0.00,,SKC,0.00,VWS V14.01,2013-04-14 07:10:00,
2013-04-14 02:15:00,60.0,56.4,29.81,SE,146,0.0,3.0,88,0.00,,SKC,0.00,VWS V14.01,2013-04-14 07:15:00,
2013-04-14 02:20:00,60.0,56.4,29.80,SE,146,0.0,3.0,88,0.00,,SKC,0.00,VWS V14.01,2013-04-14 07:20:00,
2013-04-14 02:25:00,59.9,56.3,29.80,SE,146,0.0,3.0,88,0.00,,SKC,0.00,VWS V14.01,2013-04-14 07:25:00,
2013-04-14 02:30:00,59.8,56.2,29.79,SE,146,0.0,4.0,88,0.00,,SKC,0.00,VWS V14.01,2013-04-14 07:30:00,
2013-04-14 02:35:00,59.7,56.2,29.78,SE,146,0.0,0.0,88,0.00,,SKC,0.00,VWS V14.01,2013-04-14 07:35:00,
2013-04-14 02:40:00,59.6,56.0,29.78,SE,146,0.0,0.0,88,0.00,,SKC,0.00,VWS V14.01,2013-04-14 07:40:00,
2013-04-14 02:45:00,59.5,56.3,29.78,SE,146,0.0,0.0,89,0.00,,SKC,0.00,VWS V14.01,2013-04-14 07:45:00,
2013-04-14 02:50:00,59.4,56.2,29.78,SE,146,0.0,0.0,89,0.00,,SKC,0.00,VWS V14.01,2013-04-14 07:50:00,
2013-04-14 02:55:00,59.3,56.1,29.78,SE,146,0.0,0.0,89,0.00,,SKC,0.00,VWS V14.01,2013-04-14 07:55:00,
2013-04-14 03:00:00,59.2,56.0,29.78,SE,146,0.0,0.0,89,0.00,,SKC,0.00,VWS V14.01,2013-04-14 08:00:00,
2013-04-14 03:05:00,59.0,55.8,29.78,SE,146,0.0,0.0,89,0.00,,SKC,0.00,VWS V14.01,2013-04-14 08:05:00,
2013-04-14 03:10:00,58.9,55.7,29.78,SE,146,0.0,0.0,89,0.00,,SKC,0.00,VWS V14.01,2013-04-14 08:10:00,
2013-04-14 03:15:00,58.9,55.7,29.78,SE,146,0.0,0.0,89,0.00,,SKC,0.00,VWS V14.01,2013-04-14 08:15:00,
2013-04-14 03:20:00,58.8,55.6,29.77,SE,146,0.0,0.0,89,0.00,,SKC,0.00,VWS V14.01,2013-04-14 08:20:00,
2013-04-14 03:25:00,58.7,55.5,29.77,SE,146,0.0,0.0,89,0.00,,SKC,0.00,VWS V14.01,2013-04-14 08:25:00,
2013-04-14 03:30:00,58.6,55.4,29.77,SE,146,0.0,0.0,89,0.00,,SKC,0.00,VWS V14.01,2013-04-14 08:30:00,
2013-04-14 03:35:00,58.4,55.5,29.76,SE,146,0.0,0.0,90,0.00,,SKC,0.00,VWS V14.01,2013-04-14 08:35:00,
2013-04-14 03:40:00,58.3,55.4,29.76,SE,146,0.0,0.0,90,0.00,,SKC,0.00,VWS V14.01,2013-04-14 08:40:00,
2013-04-14 03:45:00,58.1,54.9,29.76,SE,146,0.0,0.0,89,0.00,,SKC,0.00,VWS V14.01,2013-04-14 08:45:00,
2013-04-14 03:50:00,58.0,55.1,29.76,SE,146,0.0,0.0,90,0.00,,SKC,0.00,VWS V14.01,2013-04-14 08:50:00,
2013-04-14 03:55:00,58.0,55.1,29.75,SE,146,0.0,0.0,90,0.00,,SKC,0.00,VWS V14.01,2013-04-14 08:55:00,
2013-04-14 04:00:00,57.9,55.0,29.75,SE,146,0.0,0.0,90,0.00,,SKC,0.00,VWS V14.01,2013-04-14 09:00:00,
2013-04-14 04:05:00,57.8,54.9,29.75,SE,146,0.0,0.0,90,0.00,,SKC,0.00,VWS V14.01,2013-04-14 09:05:00,
2013-04-14 04:10:00,57.7,54.8,29.75,SE,146,0.0,0.0,90,0.00,,SKC,0.00,VWS V14.01,2013-04-14 09:10:00,
2013-04-14 04:15:00,57.7,54.8,29.75,SE,146,0.0,0.0,90,0.00,,SKC,0.00,VWS V14.01,2013-04-14 09:15:00,
2013-04-14 04:20:00,57.6,54.7,29.75,SE,146,0.0,0.0,90,0.00,,SKC,0.00,VWS V14.01,2013-04-14 09:20:00,
2013-04-14 04:25:00,57.7,55.1,29.75,SE,146,0.0,0.0,91,0.00,,SKC,0.00,VWS V14.01,2013-04-14 09:25:00,
2013-04-14 04:30:00,57.7,55.1,29.75,SE,146,0.0,0.0,91,0.00,,SKC,0.00,VWS V14.01,2013-04-14 09:30:00,
2013-04-14 04:35:00,57.7,55.1,29.75,SE,146,0.0,0.0,91,0.00,,SKC,0.00,VWS V14.01,2013-04-14 09:35:00,
2013-04-14 04:40:00,57.8,55.2,29.76,SE,146,0.0,0.0,91,0.00,,SKC,0.00,VWS V14.01,2013-04-14 09:40:00,
2013-04-14 04:45:00,57.9,55.3,29.76,SE,146,0.0,0.0,91,0.00,,SKC,0.00,VWS V14.01,2013-04-14 09:45:00,
2013-04-14 04:50:00,58.0,55.7,29.76,SE,146,0.0,0.0,92,0.00,,SKC,0.00,VWS V14.01,2013-04-14 09:50:00,
2013-04-14 04:55:00,58.3,56.0,29.77,SE,146,0.0,0.0,92,0.00,,SKC,0.00,VWS V14.01,2013-04-14 09:55:00,
2013-04-14 05:00:00,58.5,56.2,29.77,SE,146,0.0,0.0,92,0.00,,SKC,0.00,VWS V14.01,2013-04-14 10:00:00,
2013-04-14 05:05:00,58.6,56.3,29.76,SE,146,0.0,0.0,92,0.00,,SKC,0.00,VWS V14.01,2013-04-14 10:05:00,
2013-04-14 05:10:00,58.6,56.3,29.76,SE,146,0.0,0.0,92,0.00,,SKC,0.00,VWS V14.01,2013-04-14 10:10:00,
2013-04-14 05:15:00,58.6,56.3,29.76,SE,146,0.0,0.0,92,0.00,,SKC,0.00,VWS V14.01,2013-04-14 10:15:00,
2013-04-14 05:20:00,58.6,56.3,29.76,SE,146,0.0,0.0,92,0.00,,SKC,0.00,VWS V14.01,2013-04-14 10:20:00,
2013-04-14 05:25:00,58.6,56.3,29.76,SE,146,0.0,0.0,92,0.00,,SKC,0.00,VWS V14.01,2013-04-14 10:25:00,
2013-04-14 05:30:00,58.7,56.4,29.75,SE,146,0.0,0.0,92,0.00,,SKC,0.00,VWS V14.01,2013-04-14 10:30:00,
2013-04-14 05:35:00,58.7,56.4,29.76,SE,146,0.0,0.0,92,0.00,,SKC,0.00,VWS V14.01,2013-04-14 10:35:00,
2013-04-14 05:40:00,58.7,56.4,29.75,SE,146,0.0,0.0,92,0.00,,SKC,0.00,VWS V14.01,2013-04-14 10:40:00,
2013-04-14 05:45:00,58.8,56.8,29.76,SE,146,0.0,0.0,93,0.00,,SKC,0.00,VWS V14.01,2013-04-14 10:45:00,
2013-04-14 05:50:00,58.9,56.9,29.76,SE,146,0.0,0.0,93,0.00,,SKC,0.00,VWS V14.01,2013-04-14 10:50:00,
2013-04-14 05:55:00,58.9,56.9,29.76,SE,146,0.0,0.0,93,0.00,,SKC,0.00,VWS V14.01,2013-04-14 10:55:00,
2013-04-14 06:00:00,59.0,57.0,29.76,SE,146,0.0,0.0,93,0.00,,SKC,0.00,VWS V14.01,2013-04-14 11:00:00,
2013-04-14 06:05:00,59.1,57.1,29.76,SE,146,0.0,0.0,93,0.00,,SKC,0.00,VWS V14.01,2013-04-14 11:05:00,
2013-04-14 06:10:00,59.1,57.1,29.76,SE,146,0.0,0.0,93,0.00,,SKC,0.00,VWS V14.01,2013-04-14 11:10:00,
2013-04-14 06:15:00,59.2,57.2,29.76,SE,146,0.0,0.0,93,0.00,,SKC,0.00,VWS V14.01,2013-04-14 11:15:00,
2013-04-14 06:20:00,59.3,57.3,29.76,SE,146,0.0,0.0,93,0.00,,SKC,0.00,VWS V14.01,2013-04-14 11:20:00,
2013-04-14 06:25:00,59.3,57.3,29.76,SE,146,0.0,0.0,93,0.00,,SKC,0.00,VWS V14.01,2013-04-14 11:25:00,
2013-04-14 06:30:00,59.4,57.4,29.76,SE,146,0.0,0.0,93,0.00,,SKC,0.00,VWS V14.01,2013-04-14 11:30:00,
2013-04-14 06:35:00,59.4,57.4,29.76,SE,146,0.0,0.0,93,0.00,,SKC,0.00,VWS V14.01,2013-04-14 11:35:00,
2013-04-14 06:40:00,59.5,57.5,29.76,SE,146,0.0,0.0,93,0.00,,SKC,0.00,VWS V14.01,2013-04-14 11:40:00,
2013-04-14 06:45:00,59.7,57.7,29.76,SE,146,0.0,0.0,93,0.00,,SKC,0.00,VWS V14.01,2013-04-14 11:45:00,
2013-04-14 06:50:00,59.8,57.8,29.76,SE,146,0.0,3.0,93,0.00,,SKC,0.00,VWS V14.01,2013-04-14 11:50:00,
2013-04-14 06:55:00,60.0,58.0,29.76,SE,146,0.0,3.0,93,0.00,,SKC,0.00,VWS V14.01,2013-04-14 11:55:00,
2013-04-14 07:00:00,60.0,58.0,29.76,SE,146,0.0,3.0,93,0.00,,SKC,0.00,VWS V14.01,2013-04-14 12:00:00,
2013-04-14 07:05:00,60.1,58.1,29.76,SE,146,0.0,0.0,93,0.00,,SKC,0.00,VWS V14.01,2013-04-14 12:05:00,
2013-04-14 07:10:00,60.2,58.2,29.76,SE,146,0.0,0.0,93,0.00,,SKC,0.00,VWS V14.01,2013-04-14 12:10:00,
2013-04-14 07:15:00,60.2,58.2,29.76,SE,146,0.0,0.0,93,0.00,,SKC,0.00,VWS V14.01,2013-04-14 12:15:00,
2013-04-14 07:20:00,60.3,58.3,29.76,SE,146,0.0,1.0,93,0.00,,SKC,0.00,VWS V14.01,2013-04-14 12:20:00,
2013-04-14 07:25:00,60.4,58.4,29.76,SE,146,0.0,3.0,93,0.00,,SKC,0.00,VWS V14.01,2013-04-14 12:25:00,
2013-04-14 07:30:00,60.5,58.5,29.76,SE,146,0.0,3.0,93,0.00,,SKC,0.00,VWS V14.01,2013-04-14 12:30:00,
2013-04-14 07:35:00,60.5,58.8,29.76,SE,146,2.0,4.0,94,0.00,,SKC,0.00,VWS V14.01,2013-04-14 12:35:00,
2013-04-14 07:40:00,60.6,58.9,29.76,SE,146,0.0,4.0,94,0.00,,SKC,0.00,VWS V14.01,2013-04-14 12:40:00,
2013-04-14 07:45:00,60.7,59.0,29.76,SE,146,2.0,4.0,94,0.00,,SKC,0.00,VWS V14.01,2013-04-14 12:45:00,
2013-04-14 07:50:00,60.7,59.0,29.76,SE,146,0.0,4.0,94,0.00,,SKC,0.00,VWS V14.01,2013-04-14 12:50:00,
2013-04-14 07:55:00,60.8,59.1,29.76,SE,146,4.0,4.0,94,0.00,,SKC,0.00,VWS V14.01,2013-04-14 12:55:00,
2013-04-14 08:00:00,60.9,58.9,29.76,SE,146,2.0,5.0,93,0.00,,SKC,0.00,VWS V14.01,2013-04-14 13:00:00,
2013-04-14 08:05:00,61.0,59.0,29.76,SE,146,3.0,4.0,93,0.00,,SKC,0.00,VWS V14.01,2013-04-14 13:05:00,
2013-04-14 08:10:00,61.1,59.1,29.76,SE,146,3.0,4.0,93,0.00,,SKC,0.00,VWS V14.01,2013-04-14 13:10:00,
2013-04-14 08:15:00,61.1,59.1,29.77,SE,146,0.0,4.0,93,0.00,,SKC,0.00,VWS V14.01,2013-04-14 13:15:00,
2013-04-14 08:20:00,61.2,59.5,29.77,SSE,149,2.0,7.0,94,0.00,,SKC,0.00,VWS V14.01,2013-04-14 13:20:00,
2013-04-14 08:25:00,61.3,59.6,29.77,SSE,151,0.0,7.0,94,0.00,,SKC,0.00,VWS V14.01,2013-04-14 13:25:00,
2013-04-14 08:30:00,61.4,59.7,29.77,SSE,151,0.0,7.0,94,0.00,,SKC,0.00,VWS V14.01,2013-04-14 13:30:00,
2013-04-14 08:35:00,61.5,59.8,29.77,SSE,152,2.0,7.0,94,0.00,,SKC,0.00,VWS V14.01,2013-04-14 13:35:00,
2013-04-14 08:40:00,61.6,59.9,29.77,SSE,152,2.0,7.0,94,0.00,,SKC,0.00,VWS V14.01,2013-04-14 13:40:00,
2013-04-14 08:45:00,61.7,60.0,29.76,SSE,152,3.0,7.0,94,0.00,,SKC,0.00,VWS V14.01,2013-04-14 13:45:00,
2013-04-14 08:50:00,61.8,59.8,29.77,SSE,152,2.0,7.0,93,0.00,,SKC,0.00,VWS V14.01,2013-04-14 13:50:00,
2013-04-14 08:55:00,62.0,60.3,29.77,SSE,152,0.0,7.0,94,0.00,,SKC,0.00,VWS V14.01,2013-04-14 13:55:00,
2013-04-14 09:00:00,62.0,60.3,29.77,SSE,152,2.0,7.0,94,0.00,,SKC,0.00,VWS V14.01,2013-04-14 14:00:00,
2013-04-14 09:05:00,62.2,60.5,29.77,SSE,153,5.0,6.0,94,0.00,,SKC,0.00,VWS V14.01,2013-04-14 14:05:00,
2013-04-14 09:10:00,62.3,60.6,29.77,SSE,155,5.0,7.0,94,0.00,,SKC,0.00,VWS V14.01,2013-04-14 14:10:00,
2013-04-14 09:15:00,62.4,60.3,29.77,SSE,161,3.0,7.0,93,0.00,,SKC,0.00,VWS V14.01,2013-04-14 14:15:00,
2013-04-14 09:20:00,62.6,60.8,29.77,SSE,163,5.0,7.0,94,0.00,,SKC,0.00,VWS V14.01,2013-04-14 14:20:00,
2013-04-14 09:25:00,62.7,61.0,29.77,South,172,5.0,8.0,94,0.00,,SKC,0.00,VWS V14.01,2013-04-14 14:25:00,
2013-04-14 09:30:00,62.9,61.2,29.78,South,173,4.0,8.0,94,0.00,,SKC,0.00,VWS V14.01,2013-04-14 14:30:00,
2013-04-14 09:35:00,63.0,61.0,29.78,South,173,5.0,5.0,93,0.00,,SKC,0.00,VWS V14.01,2013-04-14 14:35:00,
2013-04-14 09:40:00,63.2,61.2,29.78,SSW,207,6.0,10.0,93,0.00,,SKC,0.00,VWS V14.01,2013-04-14 14:40:00,
2013-04-14 09:45:00,63.3,61.2,29.78,SSW,207,6.0,10.0,93,0.00,,SKC,0.00,VWS V14.01,2013-04-14 14:45:00,
2013-04-14 09:50:00,63.4,61.3,29.78,SSW,207,3.0,12.0,93,0.00,,SKC,0.00,VWS V14.01,2013-04-14 14:50:00,
2013-04-14 09:55:00,63.4,61.3,29.78,SSW,206,7.0,12.0,93,0.00,,SKC,0.00,VWS V14.01,2013-04-14 14:55:00,
2013-04-14 10:00:00,63.6,61.5,29.78,SSW,206,3.0,12.0,93,0.00,,SKC,0.00,VWS V14.01,2013-04-14 15:00:00,
2013-04-14 10:05:00,63.7,61.6,29.79,SSW,205,9.0,10.0,93,0.00,,SKC,0.00,VWS V14.01,2013-04-14 15:05:00,
2013-04-14 10:10:00,63.8,61.7,29.78,SSW,211,6.0,11.0,93,0.00,,SKC,0.00,VWS V14.01,2013-04-14 15:10:00,
2013-04-14 10:15:00,63.9,61.8,29.78,SSW,199,4.0,11.0,93,0.00,,SKC,0.00,VWS V14.01,2013-04-14 15:15:00,
2013-04-14 10:20:00,64.1,62.0,29.78,SSW,202,5.0,11.0,93,0.00,,SKC,0.00,VWS V14.01,2013-04-14 15:20:00,
2013-04-14 10:25:00,64.3,61.9,29.78,SSW,205,3.0,11.0,92,0.00,,SKC,0.00,VWS V14.01,2013-04-14 15:25:00,
2013-04-14 10:30:00,64.5,62.4,29.78,SSW,200,3.0,11.0,93,0.00,,SKC,0.00,VWS V14.01,2013-04-14 15:30:00,
2013-04-14 10:35:00,64.9,62.5,29.78,SSW,213,7.0,10.0,92,0.00,,SKC,0.00,VWS V14.01,2013-04-14 15:35:00,
2013-04-14 10:40:00,65.3,62.9,29.78,SSW,207,7.0,7.0,92,0.00,,SKC,0.00,VWS V14.01,2013-04-14 15:40:00,
2013-04-14 10:45:00,65.8,63.1,29.78,SW,220,7.0,12.0,91,0.00,,SKC,0.00,VWS V14.01,2013-04-14 15:45:00,
2013-04-14 10:50:00,66.5,63.5,29.78,SW,230,7.0,12.0,90,0.00,,SKC,0.00,VWS V14.01,2013-04-14 15:50:00,
2013-04-14 10:55:00,67.0,63.7,29.78,SW,225,3.0,12.0,89,0.00,,SKC,0.00,VWS V14.01,2013-04-14 15:55:00,
2013-04-14 11:00:00,67.5,63.8,29.78,SW,232,4.0,12.0,88,0.00,,SKC,0.00,VWS V14.01,2013-04-14 16:00:00,
2013-04-14 11:05:00,68.0,64.0,29.78,SW,227,5.0,9.0,87,0.00,,SKC,0.00,VWS V14.01,2013-04-14 16:05:00,
2013-04-14 11:10:00,68.6,64.2,29.78,SSW,198,5.0,11.0,86,0.00,,SKC,0.00,VWS V14.01,2013-04-14 16:10:00,
2013-04-14 11:15:00,69.1,64.1,29.78,SSW,207,6.0,11.0,84,0.00,,SKC,0.00,VWS V14.01,2013-04-14 16:15:00,
2013-04-14 11:20:00,69.5,64.5,29.77,SSW,209,3.0,11.0,84,0.00,,SKC,0.00,VWS V14.01,2013-04-14 16:20:00,
2013-04-14 11:25:00,70.0,64.3,29.77,SSW,204,4.0,12.0,82,0.00,,SKC,0.00,VWS V14.01,2013-04-14 16:25:00,
2013-04-14 11:30:00,70.3,64.6,29.78,South,180,14.0,14.0,82,0.00,,SKC,0.00,VWS V14.01,2013-04-14 16:30:00,
2013-04-14 11:35:00,70.5,64.4,29.78,SW,231,5.0,14.0,81,0.00,,SKC,0.00,VWS V14.01,2013-04-14 16:35:00,
2013-04-14 11:40:00,70.6,64.5,29.77,SW,223,4.0,14.0,81,0.00,,SKC,0.00,VWS V14.01,2013-04-14 16:40:00,
2013-04-14 11:45:00,70.8,64.7,29.77,SW,231,8.0,14.0,81,0.00,,SKC,0.00,VWS V14.01,2013-04-14 16:45:00,
2013-04-14 11:50:00,71.1,64.6,29.77,WSW,247,11.0,14.0,80,0.00,,SKC,0.00,VWS V14.01,2013-04-14 16:50:00,
2013-04-14 11:55:00,71.4,65.3,29.77,SSW,198,6.0,14.0,81,0.00,,SKC,0.00,VWS V14.01,2013-04-14 16:55:00,
2013-04-14 12:00:00,71.9,65.4,29.76,South,184,11.0,14.0,80,0.00,,SKC,0.00,VWS V14.01,2013-04-14 17:00:00,
2013-04-14 12:05:00,72.2,65.3,29.77,SSW,194,6.0,12.0,79,0.00,,SKC,0.00,VWS V14.01,2013-04-14 17:05:00,
2013-04-14 12:10:00,72.4,65.2,29.77,SSW,199,10.0,14.0,78,0.00,,SKC,0.00,VWS V14.01,2013-04-14 17:10:00,
2013-04-14 12:15:00,72.6,65.3,29.76,SSW,192,5.0,15.0,78,0.00,,SKC,0.00,VWS V14.01,2013-04-14 17:15:00,
2013-04-14 12:20:00,73.0,65.7,29.76,South,183,6.0,15.0,78,0.00,,SKC,0.00,VWS V14.01,2013-04-14 17:20:00,
2013-04-14 12:25:00,73.3,65.3,29.76,SW,230,5.0,15.0,76,0.00,,SKC,0.00,VWS V14.01,2013-04-14 17:25:00,
2013-04-14 12:30:00,73.3,65.3,29.76,SSW,200,5.0,15.0,76,0.00,,SKC,0.00,VWS V14.01,2013-04-14 17:30:00,
2013-04-14 12:35:00,73.4,65.4,29.76,WSW,240,3.0,13.0,76,0.00,,SKC,0.00,VWS V14.01,2013-04-14 17:35:00,
2013-04-14 12:40:00,73.6,65.6,29.76,SW,234,10.0,13.0,76,0.00,,SKC,0.00,VWS V14.01,2013-04-14 17:40:00,
2013-04-14 12:45:00,73.8,65.4,29.76,SW,227,6.0,14.0,75,0.00,,SKC,0.00,VWS V14.01,2013-04-14 17:45:00,
2013-04-14 12:50:00,74.2,65.8,29.76,SSW,193,4.0,14.0,75,0.00,,SKC,0.00,VWS V14.01,2013-04-14 17:50:00,
2013-04-14 12:55:00,74.8,65.6,29.75,SW,223,10.0,14.0,73,0.00,,SKC,0.00,VWS V14.01,2013-04-14 17:55:00,
2013-04-14 13:00:00,75.2,66.0,29.75,South,190,6.0,16.0,73,0.00,,SKC,0.00,VWS V14.01,2013-04-14 18:00:00,
2013-04-14 13:05:00,75.5,65.8,29.75,South,190,8.0,11.0,72,0.00,,SKC,0.00,VWS V14.01,2013-04-14 18:05:00,
2013-04-14 13:10:00,75.9,65.8,29.75,South,189,15.0,15.0,71,0.00,,SKC,0.00,VWS V14.01,2013-04-14 18:10:00,
2013-04-14 13:15:00,76.1,66.0,29.75,SSW,197,14.0,16.0,71,0.00,,SKC,0.00,VWS V14.01,2013-04-14 18:15:00,
2013-04-14 13:20:00,76.3,66.2,29.75,SSW,213,9.0,16.0,71,0.00,,SKC,0.00,VWS V14.01,2013-04-14 18:20:00,
2013-04-14 13:25:00,76.6,66.1,29.74,SW,233,8.0,16.0,70,0.00,,SKC,0.00,VWS V14.01,2013-04-14 18:25:00,
2013-04-14 13:30:00,77.0,66.5,29.74,SSW,194,19.0,19.0,70,0.00,,SKC,0.00,VWS V14.01,2013-04-14 18:30:00,
2013-04-14 13:35:00,77.3,66.3,29.73,SSW,197,9.0,16.0,69,0.00,,SKC,0.00,VWS V14.01,2013-04-14 18:35:00,
2013-04-14 13:40:00,77.7,66.7,29.73,SSW,205,5.0,16.0,69,0.00,,SKC,0.00,VWS V14.01,2013-04-14 18:40:00,
2013-04-14 13:45:00,78.1,66.3,29.72,SSW,196,4.0,16.0,67,0.00,,SKC,0.00,VWS V14.01,2013-04-14 18:45:00,
2013-04-14 13:50:00,78.5,67.1,29.72,South,186,6.0,16.0,68,0.00,,SKC,0.00,VWS V14.01,2013-04-14 18:50:00,
2013-04-14 13:55:00,79.0,66.7,29.72,SSW,198,13.0,17.0,66,0.00,,SKC,0.00,VWS V14.01,2013-04-14 18:55:00,
2013-04-14 14:00:00,79.3,67.0,29.72,South,186,11.0,17.0,66,0.00,,SKC,0.00,VWS V14.01,2013-04-14 19:00:00,
2013-04-14 14:05:00,79.8,67.4,29.72,SW,217,5.0,13.0,66,0.00,,SKC,0.00,VWS V14.01,2013-04-14 19:05:00,
2013-04-14 14:10:00,80.3,67.5,29.71,SSW,200,4.0,16.0,65,0.00,,SKC,0.00,VWS V14.01,2013-04-14 19:10:00,
2013-04-14 14:15:00,80.8,67.0,29.72,SSW,198,6.0,16.0,63,0.00,,SKC,0.00,VWS V14.01,2013-04-14 19:15:00,
2013-04-14 14:20:00,81.2,67.4,29.71,SSW,206,12.0,16.0,63,0.00,,SKC,0.00,VWS V14.01,2013-04-14 19:20:00,
2013-04-14 14:25:00,81.5,67.2,29.71,SSW,196,3.0,16.0,62,0.00,,SKC,0.00,VWS V14.01,2013-04-14 19:25:00,
2013-04-14 14:30:00,81.8,68.0,29.71,SW,225,6.0,16.0,63,0.00,,SKC,0.00,VWS V14.01,2013-04-14 19:30:00,
2013-04-14 14:35:00,82.2,67.9,29.70,SSE,167,4.0,9.0,62,0.00,,SKC,0.00,VWS V14.01,2013-04-14 19:35:00,
2013-04-14 14:40:00,82.7,67.9,29.70,SSW,192,12.0,12.0,61,0.00,,SKC,0.00,VWS V14.01,2013-04-14 19:40:00,
2013-04-14 14:45:00,82.6,67.8,29.69,SSE,147,4.0,12.0,61,0.00,,SKC,0.00,VWS V14.01,2013-04-14 19:45:00,
2013-04-14 14:50:00,82.7,67.9,29.69,SSE,167,3.0,12.0,61,0.00,,SKC,0.00,VWS V14.01,2013-04-14 19:50:00,
2013-04-14 14:55:00,82.9,67.6,29.69,SE,145,4.0,14.0,60,0.00,,SKC,0.00,VWS V14.01,2013-04-14 19:55:00,
2013-04-14 15:00:00,82.9,67.6,29.69,SSW,198,10.0,14.0,60,0.00,,SKC,0.00,VWS V14.01,2013-04-14 20:00:00,
2013-04-14 15:05:00,83.0,68.2,29.68,SSW,200,10.0,11.0,61,0.00,,SKC,0.00,VWS V14.01,2013-04-14 20:05:00,
2013-04-14 15:10:00,82.9,67.6,29.68,SSW,194,5.0,14.0,60,0.00,,SKC,0.00,VWS V14.01,2013-04-14 20:10:00,
2013-04-14 15:15:00,83.0,67.7,29.68,South,189,9.0,14.0,60,0.00,,SKC,0.00,VWS V14.01,2013-04-14 20:15:00,
2013-04-14 15:20:00,83.0,67.2,29.68,SW,233,9.0,15.0,59,0.00,,SKC,0.00,VWS V14.01,2013-04-14 20:20:00,
2013-04-14 15:25:00,83.0,67.2,29.68,South,186,4.0,15.0,59,0.00,,SKC,0.00,VWS V14.01,2013-04-14 20:25:00,
2013-04-14 15:30:00,83.0,67.7,29.68,SSE,163,4.0,15.0,60,0.00,,SKC,0.00,VWS V14.01,2013-04-14 20:30:00,
2013-04-14 15:35:00,83.2,67.4,29.67,South,186,5.0,15.0,59,0.00,,SKC,0.00,VWS V14.01,2013-04-14 20:35:00,
2013-04-14 15:40:00,83.3,67.0,29.67,SSW,195,6.0,15.0,58,0.00,,SKC,0.00,VWS V14.01,2013-04-14 20:40:00,
2013-04-14 15:45:00,83.6,67.3,29.67,SSE,150,10.0,15.0,58,0.00,,SKC,0.00,VWS V14.01,2013-04-14 20:45:00,
2013-04-14 15:50:00,83.9,67.1,29.67,SSW,198,9.0,15.0,57,0.00,,SKC,0.00,VWS V14.01,2013-04-14 20:50:00,
2013-04-14 15:55:00,84.1,66.7,29.66,SSW,193,5.0,15.0,56,0.00,,SKC,0.00,VWS V14.01,2013-04-14 20:55:00,
2013-04-14 16:00:00,84.3,67.4,29.66,SSW,209,15.0,15.0,57,0.00,,SKC,0.00,VWS V14.01,2013-04-14 21:00:00,
2013-04-14 16:05:00,84.5,66.6,29.66,SSW,204,4.0,12.0,55,0.00,,SKC,0.00,VWS V14.01,2013-04-14 21:05:00,
2013-04-14 16:10:00,84.8,66.8,29.65,South,178,1.0,12.0,55,0.00,,SKC,0.00,VWS V14.01,2013-04-14 21:10:00,
2013-04-14 16:15:00,85.2,66.2,29.66,SSW,204,11.0,15.0,53,0.00,,SKC,0.00,VWS V14.01,2013-04-14 21:15:00,
2013-04-14 16:20:00,85.4,66.3,29.65,SSE,159,5.0,15.0,53,0.00,,SKC,0.00,VWS V14.01,2013-04-14 21:20:00,
2013-04-14 16:25:00,85.7,67.2,29.65,South,182,6.0,15.0,54,0.00,,SKC,0.00,VWS V14.01,2013-04-14 21:25:00,
2013-04-14 16:30:00,85.9,66.2,29.65,South,186,8.0,15.0,52,0.00,,SKC,0.00,VWS V14.01,2013-04-14 21:30:00,
2013-04-14 16:35:00,86.0,66.3,29.65,SSW,197,9.0,12.0,52,0.00,,SKC,0.00,VWS V14.01,2013-04-14 21:35:00,
2013-04-14 16:40:00,86.1,65.9,29.65,SSW,200,3.0,13.0,51,0.00,,SKC,0.00,VWS V14.01,2013-04-14 21:40:00,
2013-04-14 16:45:00,86.3,64.9,29.65,SSW,194,2.0,13.0,49,0.00,,SKC,0.00,VWS V14.01,2013-04-14 21:45:00,
2013-04-14 16:50:00,86.7,65.3,29.64,South,171,7.0,13.0,49,0.00,,SKC,0.00,VWS V14.01,2013-04-14 21:50:00,
2013-04-14 16:55:00,87.0,66.1,29.64,South,182,4.0,15.0,50,0.00,,SKC,0.00,VWS V14.01,2013-04-14 21:55:00,
2013-04-14 17:00:00,86.9,65.5,29.64,SW,215,7.0,15.0,49,0.00,,SKC,0.00,VWS V14.01,2013-04-14 22:00:00,
2013-04-14 17:05:00,87.1,65.1,29.64,South,188,10.0,13.0,48,0.00,,SKC,0.00,VWS V14.01,2013-04-14 22:05:00,
2013-04-14 17:10:00,86.9,64.9,29.63,South,171,5.0,13.0,48,0.00,,SKC,0.00,VWS V14.01,2013-04-14 22:10:00,
2013-04-14 17:15:00,86.9,64.9,29.63,SW,227,7.0,13.0,48,0.00,,SKC,0.00,VWS V14.01,2013-04-14 22:15:00,
2013-04-14 17:20:00,87.0,65.0,29.63,SSW,192,6.0,13.0,48,0.00,,SKC,0.00,VWS V14.01,2013-04-14 22:20:00,
2013-04-14 17:25:00,87.0,64.3,29.63,SSE,165,3.0,13.0,47,0.00,,SKC,0.00,VWS V14.01,2013-04-14 22:25:00,
2013-04-14 17:30:00,87.1,63.8,29.63,SSE,157,9.0,13.0,46,0.00,,SKC,0.00,VWS V14.01,2013-04-14 22:30:00,
2013-04-14 17:35:00,87.2,65.1,29.63,South,171,4.0,9.0,48,0.00,,SKC,0.00,VWS V14.01,2013-04-14 22:35:00,
2013-04-14 17:40:00,87.2,64.5,29.63,SSE,151,7.0,9.0,47,0.00,,SKC,0.00,VWS V14.01,2013-04-14 22:40:00,
2013-04-14 17:45:00,87.1,63.8,29.63,SSE,153,5.0,15.0,46,0.00,,SKC,0.00,VWS V14.01,2013-04-14 22:45:00,
2013-04-14 17:50:00,87.1,64.4,29.63,SE,140,4.0,15.0,47,0.00,,SKC,0.00,VWS V14.01,2013-04-14 22:50:00,
2013-04-14 17:55:00,87.2,63.9,29.62,SSW,193,6.0,15.0,46,0.00,,SKC,0.00,VWS V14.01,2013-04-14 22:55:00,
2013-04-14 18:00:00,87.2,63.9,29.62,South,189,4.0,15.0,46,0.00,,SKC,0.00,VWS V14.01,2013-04-14 23:00:00,
2013-04-14 18:05:00,87.2,62.7,29.62,South,173,6.0,14.0,44,0.00,,SKC,0.00,VWS V14.01,2013-04-14 23:05:00,
2013-04-14 18:10:00,87.0,62.5,29.62,SSE,151,3.0,14.0,44,0.00,,SKC,0.00,VWS V14.01,2013-04-14 23:10:00,
2013-04-14 18:15:00,87.0,63.1,29.62,South,191,5.0,14.0,45,0.00,,SKC,0.00,VWS V14.01,2013-04-14 23:15:00,
2013-04-14 18:20:00,87.1,62.6,29.62,South,180,6.0,14.0,44,0.00,,SKC,0.00,VWS V14.01,2013-04-14 23:20:00,
2013-04-14 18:25:00,87.2,62.7,29.62,SSE,159,4.0,14.0,44,0.00,,SKC,0.00,VWS V14.01,2013-04-14 23:25:00,
2013-04-14 18:30:00,87.1,62.6,29.62,SSE,156,4.0,14.0,44,0.00,,SKC,0.00,VWS V14.01,2013-04-14 23:30:00,
2013-04-14 18:35:00,87.0,63.1,29.62,SSE,147,2.0,11.0,45,0.00,,SKC,0.00,VWS V14.01,2013-04-14 23:35:00,
2013-04-14 18:40:00,86.9,62.4,29.62,South,175,5.0,11.0,44,0.00,,SKC,0.00,VWS V14.01,2013-04-14 23:40:00,
2013-04-14 18:45:00,86.9,62.4,29.63,South,188,4.0,11.0,44,0.00,,SKC,0.00,VWS V14.01,2013-04-14 23:45:00,
2013-04-14 18:50:00,87.0,63.1,29.62,South,180,2.0,11.0,45,0.00,,SKC,0.00,VWS V14.01,2013-04-14 23:50:00,
2013-04-14 18:55:00,86.9,63.7,29.63,SSE,162,2.0,11.0,46,0.00,,SKC,0.00,VWS V14.01,2013-04-14 23:55:00,
2013-04-14 19:00:00,86.9,63.0,29.63,South,180,8.0,11.0,45,0.00,,SKC,0.00,VWS V14.01,2013-04-15 00:00:00,
2013-04-14 19:05:00,86.9,63.0,29.63,South,178,5.0,10.0,45,0.00,,SKC,0.00,VWS V14.01,2013-04-15 00:05:00,
2013-04-14 19:10:00,86.7,62.8,29.63,SSW,194,0.0,10.0,45,0.00,,SKC,0.00,VWS V14.01,2013-04-15 00:10:00,
2013-04-14 19:15:00,86.5,62.7,29.63,South,175,3.0,12.0,45,0.00,,SKC,0.00,VWS V14.01,2013-04-15 00:15:00,
2013-04-14 19:20:00,86.2,62.4,29.63,SSE,155,1.0,12.0,45,0.00,,SKC,0.00,VWS V14.01,2013-04-15 00:20:00,
2013-04-14 19:25:00,86.0,62.2,29.63,SSE,156,3.0,12.0,45,0.00,,SKC,0.00,VWS V14.01,2013-04-15 00:25:00,
2013-04-14 19:30:00,85.7,61.9,29.63,SSE,164,1.0,12.0,45,0.00,,SKC,0.00,VWS V14.01,2013-04-15 00:30:00,
2013-04-14 19:35:00,85.6,61.8,29.63,South,175,6.0,6.0,45,0.00,,SKC,0.00,VWS V14.01,2013-04-15 00:35:00,
2013-04-14 19:40:00,85.3,62.2,29.62,South,176,0.0,6.0,46,0.00,,SKC,0.00,VWS V14.01,2013-04-15 00:40:00,
2013-04-14 19:45:00,85.1,62.0,29.63,South,176,2.0,6.0,46,0.00,,SKC,0.00,VWS V14.01,2013-04-15 00:45:00,
2013-04-14 19:50:00,84.7,61.7,29.63,South,176,0.0,6.0,46,0.00,,SKC,0.00,VWS V14.01,2013-04-15 00:50:00,
2013-04-14 19:55:00,84.4,61.4,29.63,South,176,0.0,6.0,46,0.00,,SKC,0.00,VWS V14.01,2013-04-15 00:55:00,
2013-04-14 20:00:00,84.1,61.7,29.63,South,176,0.0,6.0,47,0.00,,SKC,0.00,VWS V14.01,2013-04-15 01:00:00,
2013-04-14 20:05:00,83.8,61.4,29.63,South,176,0.0,1.0,47,0.00,,SKC,0.00,VWS V14.01,2013-04-15 01:05:00,
2013-04-14 20:10:00,83.5,61.2,29.63,South,176,0.0,1.0,47,0.00,,SKC,0.00,VWS V14.01,2013-04-15 01:10:00,
2013-04-14 20:15:00,83.2,61.5,29.63,South,176,0.0,1.0,48,0.00,,SKC,0.00,VWS V14.01,2013-04-15 01:15:00,
2013-04-14 20:20:00,82.9,61.2,29.63,South,176,0.0,1.0,48,0.00,,SKC,0.00,VWS V14.01,2013-04-15 01:20:00,
2013-04-14 20:25:00,82.6,61.5,29.63,South,176,0.0,1.0,49,0.00,,SKC,0.00,VWS V14.01,2013-04-15 01:25:00,
2013-04-14 20:30:00,82.1,61.1,29.64,South,176,0.0,1.0,49,0.00,,SKC,0.00,VWS V14.01,2013-04-15 01:30:00,
2013-04-14 20:35:00,81.7,61.3,29.63,South,176,0.0,0.0,50,0.00,,SKC,0.00,VWS V14.01,2013-04-15 01:35:00,
2013-04-14 20:40:00,81.2,61.4,29.64,South,176,0.0,0.0,51,0.00,,SKC,0.00,VWS V14.01,2013-04-15 01:40:00,
2013-04-14 20:45:00,80.7,60.9,29.64,South,176,0.0,0.0,51,0.00,,SKC,0.00,VWS V14.01,2013-04-15 01:45:00,
2013-04-14 20:50:00,80.2,61.5,29.64,South,176,0.0,0.0,53,0.00,,SKC,0.00,VWS V14.01,2013-04-15 01:50:00,
2013-04-14 20:55:00,79.7,61.1,29.64,South,176,0.0,0.0,53,0.00,,SKC,0.00,VWS V14.01,2013-04-15 01:55:00,
2013-04-14 21:00:00,79.4,60.8,29.64,South,176,0.0,0.0,53,0.00,,SKC,0.00,VWS V14.01,2013-04-15 02:00:00,
2013-04-14 21:05:00,79.0,61.0,29.64,South,176,0.0,0.0,54,0.00,,SKC,0.00,VWS V14.01,2013-04-15 02:05:00,
2013-04-14 21:10:00,78.7,61.2,29.64,South,176,0.0,0.0,55,0.00,,SKC,0.00,VWS V14.01,2013-04-15 02:10:00,
2013-04-14 21:15:00,78.2,61.2,29.64,South,176,0.0,0.0,56,0.00,,SKC,0.00,VWS V14.01,2013-04-15 02:15:00,
2013-04-14 21:20:00,77.7,60.8,29.64,South,176,0.0,0.0,56,0.00,,SKC,0.00,VWS V14.01,2013-04-15 02:20:00,
2013-04-14 21:25:00,77.3,60.9,29.64,South,176,0.0,0.0,57,0.00,,SKC,0.00,VWS V14.01,2013-04-15 02:25:00,
2013-04-14 21:30:00,76.9,60.5,29.65,South,176,0.0,0.0,57,0.00,,SKC,0.00,VWS V14.01,2013-04-15 02:30:00,
2013-04-14 21:35:00,76.6,60.7,29.65,South,176,0.0,0.0,58,0.00,,SKC,0.00,VWS V14.01,2013-04-15 02:35:00,
2013-04-14 21:40:00,76.3,60.5,29.65,South,176,0.0,0.0,58,0.00,,SKC,0.00,VWS V14.01,2013-04-15 02:40:00,
2013-04-14 21:45:00,76.1,60.8,29.65,South,176,0.0,0.0,59,0.00,,SKC,0.00,VWS V14.01,2013-04-15 02:45:00,
2013-04-14 21:50:00,75.9,61.0,29.66,South,169,0.0,7.0,60,0.00,,SKC,0.00,VWS V14.01,2013-04-15 02:50:00,
2013-04-14 21:55:00,75.8,61.4,29.66,SSE,155,7.0,7.0,61,0.00,,SKC,0.00,VWS V14.01,2013-04-15 02:55:00,
2013-04-14 22:00:00,76.0,62.5,29.67,SSE,153,3.0,7.0,63,0.00,,SKC,0.00,VWS V14.01,2013-04-15 03:00:00,
2013-04-14 22:05:00,76.3,63.2,29.67,SSE,155,3.0,7.0,64,0.00,,SKC,0.00,VWS V14.01,2013-04-15 03:05:00,
2013-04-14 22:10:00,76.7,64.5,29.67,SE,142,10.0,14.0,66,0.00,,SKC,0.00,VWS V14.01,2013-04-15 03:10:00,
2013-04-14 22:15:00,77.1,65.3,29.67,SSE,147,4.0,14.0,67,0.00,,SKC,0.00,VWS V14.01,2013-04-15 03:15:00,
2013-04-14 22:20:00,77.3,65.5,29.68,SSE,148,5.0,14.0,67,0.00,,SKC,0.00,VWS V14.01,2013-04-15 03:20:00,
2013-04-14 22:25:00,77.3,65.5,29.68,SSE,153,3.0,14.0,67,0.00,,SKC,0.00,VWS V14.01,2013-04-15 03:25:00,
2013-04-14 22:30:00,77.2,65.8,29.68,SE,146,4.0,14.0,68,0.00,,SKC,0.00,VWS V14.01,2013-04-15 03:30:00,
2013-04-14 22:35:00,77.0,65.6,29.68,SSE,147,5.0,10.0,68,0.00,,SKC,0.00,VWS V14.01,2013-04-15 03:35:00,
2013-04-14 22:40:00,76.8,65.4,29.68,SE,146,5.0,10.0,68,0.00,,SKC,0.00,VWS V14.01,2013-04-15 03:40:00,
2013-04-14 22:45:00,76.6,65.7,29.68,SE,146,3.0,10.0,69,0.00,,SKC,0.00,VWS V14.01,2013-04-15 03:45:00,
2013-04-14 22:50:00,76.4,65.9,29.68,SSE,149,3.0,10.0,70,0.00,,SKC,0.00,VWS V14.01,2013-04-15 03:50:00,
2013-04-14 22:55:00,76.2,66.1,29.68,SSE,148,3.0,10.0,71,0.00,,SKC,0.00,VWS V14.01,2013-04-15 03:55:00,
2013-04-14 23:00:00,76.1,66.4,29.69,SE,146,3.0,10.0,72,0.00,,SKC,0.00,VWS V14.01,2013-04-15 04:00:00,
2013-04-14 23:05:00,75.8,66.5,29.69,SE,144,3.0,7.0,73,0.00,,SKC,0.00,VWS V14.01,2013-04-15 04:05:00,
2013-04-14 23:10:00,75.7,66.8,29.69,SE,144,3.0,7.0,74,0.00,,SKC,0.00,VWS V14.01,2013-04-15 04:10:00,
2013-04-14 23:15:00,75.5,67.0,29.69,SE,143,2.0,7.0,75,0.00,,SKC,0.00,VWS V14.01,2013-04-15 04:15:00,
2013-04-14 23:20:00,75.3,67.2,29.69,SE,145,3.0,7.0,76,0.00,,SKC,0.00,VWS V14.01,2013-04-15 04:20:00,
2013-04-14 23:25:00,75.2,67.1,29.70,SE,145,4.0,7.0,76,0.00,,SKC,0.00,VWS V14.01,2013-04-15 04:25:00,
2013-04-14 23:30:00,75.0,67.3,29.70,SE,145,1.0,7.0,77,0.00,,SKC,0.00,VWS V14.01,2013-04-15 04:30:00,
2013-04-14 23:35:00,74.8,67.1,29.71,SE,145,3.0,4.0,77,0.00,,SKC,0.00,VWS V14.01,2013-04-15 04:35:00,
2013-04-14 23:40:00,74.6,67.3,29.70,SE,141,3.0,10.0,78,0.00,,SKC,0.00,VWS V14.01,2013-04-15 04:40:00,
2013-04-14 23:45:00,74.3,67.0,29.71,SSE,152,6.0,12.0,78,0.00,,SKC,0.00,VWS V14.01,2013-04-15 04:45:00,
2013-04-14 23:50:00,74.0,66.7,29.70,SE,144,6.0,12.0,78,0.00,,SKC,0.00,VWS V14.01,2013-04-15 04:50:00,
2013-04-14 23:55:00,73.9,67.0,29.71,SE,146,2.0,12.0,79,0.00,,SKC,0.00,VWS V14.01,2013-04-15 04:55:00,